Weather History for Alva, OK

Change the Weather History Date:

Saturday, January 19, 2013

  Actual Average Record
Temperature  
Mean Temperature 47 °F -  
Max Temperature 66 °F 45 °F 76 °F (1951)
Min Temperature 28 °F 25 °F 0 °F (1963)
Degree Days  
Heating Degree Days 18    
Moisture  
Dew Point 26 °F    
Average Humidity 51    
Maximum Humidity 93    
Minimum Humidity 19    
Precipitation  
Precipitation 0.00 in - - ()
Sea Level Pressure  
Sea Level Pressure 30.12 in    
Wind  
Wind Speed 11 mph (NW)    
Max Wind Speed 16 mph    
Max Gust Speed 20 mph    
Visibility 10 miles    
Events      
Averages and records for this station are not official NWS values.
T = Trace of Precipitation, MM = Missing Value Source: NWS Daily Summary

Daily Weather History Graph

Daily Weather History Graph

Search for Another Location

Airport:

Trip Planner

Search our weather history database for the weather conditions in past years. The results will help you decide how hot, cold, wet, or windy it might be!

Date:

Astronomy

Jan. 19, 2013 Rise Set
Actual Time 7:44 AM CST 5:46 PM CST
Civil Twilight 7:16 AM CST 6:14 PM CST
Nautical Twilight 6:45 AM CST 6:46 PM CST
Astronomical Twilight 6:14 AM CST 7:17 PM CST
Moon 12:11 PM CST (1/19) 1:22 AM CST (1/19)
Length of Visible Light 10h 57m
Length of Day
10h 01m
First Quarter, 57% of the Moon is Illuminated
Jan 19
First Quarter
Jan 26
Full
Feb 3
Last Quarter
Feb 10
New
Feb 17
First Quarter

Hourly Weather History & Observations

Time (CST) Temp. Windchill Dew Point Humidity Pressure Visibility Wind Dir Wind Speed Gust Speed Precip Events Conditions
12:10 AM 44.6 °F 37.8 °F 32.0 °F 61% 30.08 in 10.0 mi SW 15.0 mph - N/A   Mostly Cloudy
12:30 AM 44.6 °F 38.4 °F 32.0 °F 61% 30.08 in 10.0 mi SSW 12.7 mph - N/A   Scattered Clouds
12:50 AM 44.6 °F 38.4 °F 32.0 °F 61% 30.07 in 10.0 mi SW 12.7 mph - N/A   Scattered Clouds
1:10 AM 42.8 °F 36.2 °F 32.0 °F 66% 30.06 in 10.0 mi SSW 12.7 mph - N/A   Scattered Clouds
1:30 AM 41.0 °F 33.5 °F 32.0 °F 70% 30.06 in 10.0 mi SW 13.8 mph - N/A   Clear
1:50 AM 41.0 °F 33.5 °F 32.0 °F 70% 30.06 in 10.0 mi SW 13.8 mph - N/A   Clear
2:10 AM 41.0 °F 33.5 °F 32.0 °F 70% 30.06 in 10.0 mi SW 13.8 mph - N/A   Clear
2:30 AM 41.0 °F 33.1 °F 32.0 °F 70% 30.05 in 10.0 mi SW 15.0 mph - N/A   Clear
2:50 AM 41.0 °F 33.1 °F 32.0 °F 70% 30.05 in 10.0 mi SW 15.0 mph - N/A   Clear
3:10 AM 41.0 °F 32.8 °F 32.0 °F 70% 30.05 in 10.0 mi SW 16.1 mph - N/A   Clear
3:30 AM 41.0 °F 32.8 °F 32.0 °F 70% 30.04 in 10.0 mi SW 16.1 mph - N/A   Clear
3:50 AM 39.2 °F 31.6 °F 30.2 °F 70% 30.04 in 10.0 mi SW 12.7 mph - N/A   Clear
4:10 AM 37.4 °F 29.3 °F 30.2 °F 75% 30.04 in 10.0 mi SW 12.7 mph - N/A   Clear
4:30 AM 37.4 °F 28.9 °F 30.2 °F 75% 30.04 in 10.0 mi SW 13.8 mph - N/A   Clear
4:50 AM 37.4 °F 28.5 °F 30.2 °F 75% 30.03 in 10.0 mi SW 15.0 mph - N/A   Clear
5:10 AM 35.6 °F 26.2 °F 30.2 °F 81% 30.03 in 10.0 mi SW 15.0 mph - N/A   Clear
5:30 AM 35.6 °F 28.0 °F 28.4 °F 75% 30.04 in 10.0 mi SW 10.4 mph - N/A   Clear
5:50 AM 32.0 °F 23.6 °F 28.4 °F 87% 30.04 in 10.0 mi WSW 10.4 mph - N/A   Clear
6:10 AM 32.0 °F 24.8 °F 26.6 °F 80% 30.05 in 10.0 mi West 8.1 mph - N/A   Clear
6:35 AM 28.4 °F 19.7 °F 26.6 °F 93% 30.05 in 10.0 mi WSW 9.2 mph - N/A   Clear
6:50 AM 30.2 °F 21.9 °F 26.6 °F 86% 30.05 in 10.0 mi WSW 9.2 mph - N/A   Clear
7:10 AM 30.2 °F 21.3 °F 26.6 °F 86% 30.05 in 10.0 mi SW 10.4 mph - N/A   Clear
7:30 AM 32.0 °F 24.2 °F 26.6 °F 80% 30.07 in 10.0 mi West 9.2 mph - N/A   Clear
7:50 AM 30.2 °F 26.7 °F 26.6 °F 86% 30.08 in 10.0 mi West 3.5 mph - N/A   Clear
8:10 AM 28.4 °F 21.2 °F 26.6 °F 93% 30.09 in 10.0 mi WSW 6.9 mph - N/A   Clear
8:30 AM 32.0 °F 25.6 °F 28.4 °F 87% 30.09 in 10.0 mi WSW 6.9 mph - N/A   Clear
8:50 AM 35.6 °F 32.8 °F 28.4 °F 75% 30.11 in 10.0 mi West 3.5 mph - N/A   Clear
9:30 AM 41.0 °F 35.8 °F 30.2 °F 65% 30.11 in 10.0 mi WSW 8.1 mph - N/A   Clear
9:50 AM 44.6 °F 40.7 °F 32.0 °F 61% 30.13 in 10.0 mi WNW 6.9 mph - N/A   Clear
10:10 AM 46.4 °F 42.4 °F 30.2 °F 53% 30.14 in 10.0 mi NW 8.1 mph - N/A   Clear
10:30 AM 50.0 °F - 28.4 °F 43% 30.15 in 10.0 mi NW 5.8 mph - N/A   Clear
10:50 AM 51.8 °F - 23.0 °F 33% 30.15 in 10.0 mi North 8.1 mph - N/A   Clear
11:10 AM 53.6 °F - 23.0 °F 30% 30.15 in 10.0 mi North 8.1 mph - N/A   Clear
11:30 AM 53.6 °F - 23.0 °F 30% 30.14 in 10.0 mi North 4.6 mph - N/A   Clear
11:55 AM 55.4 °F - 23.0 °F 29% 30.13 in 10.0 mi NNW 3.5 mph - N/A   Clear
12:10 PM 55.4 °F - 23.0 °F 29% 30.13 in 10.0 mi North 3.5 mph - N/A   Clear
12:30 PM 57.2 °F - 23.0 °F 27% 30.12 in 10.0 mi NNE 4.6 mph - N/A   Clear
12:50 PM 57.2 °F - 23.0 °F 27% 30.11 in 10.0 mi Calm Calm - N/A   Clear
1:10 PM 59.0 °F - 24.8 °F 27% 30.11 in 10.0 mi WSW 4.6 mph - N/A   Clear
1:30 PM 60.8 °F - 24.8 °F 25% 30.10 in 10.0 mi WNW 5.8 mph - N/A   Clear
1:50 PM 62.6 °F - 24.8 °F 24% 30.10 in 10.0 mi NW 9.2 mph - N/A   Clear
2:10 PM 64.4 °F - 24.8 °F 22% 30.10 in 10.0 mi NE 3.5 mph - N/A   Clear
2:50 PM 64.4 °F - 23.0 °F 21% 30.10 in 10.0 mi North 6.9 mph - N/A   Clear
3:10 PM 64.4 °F - 23.0 °F 21% 30.10 in 10.0 mi North 9.2 mph - N/A   Clear
3:30 PM 66.2 °F - 23.0 °F 19% 30.11 in 10.0 mi North 12.7 mph 16.1 mph N/A   Clear
3:50 PM 64.4 °F - 23.0 °F 21% 30.12 in 10.0 mi North 15.0 mph - N/A   Clear
4:10 PM 64.4 °F - 23.0 °F 21% 30.13 in 10.0 mi North 13.8 mph 19.6 mph N/A   Clear
4:30 PM 62.6 °F - 23.0 °F 22% 30.14 in 10.0 mi North 11.5 mph - N/A   Clear
4:50 PM 62.6 °F - 23.0 °F 22% 30.15 in 10.0 mi NNE 9.2 mph - N/A   Clear
5:10 PM 59.0 °F - 23.0 °F 25% 30.15 in 10.0 mi NNE 8.1 mph - N/A   Clear
5:30 PM 57.2 °F - 23.0 °F 27% 30.15 in 10.0 mi NNE 6.9 mph - N/A   Clear
5:50 PM 57.2 °F - 23.0 °F 27% 30.15 in 10.0 mi NNE 5.8 mph - N/A   Clear
6:10 PM 55.4 °F - 23.0 °F 29% 30.16 in 10.0 mi North 5.8 mph - N/A   Clear
6:30 PM 55.4 °F - 23.0 °F 29% 30.17 in 10.0 mi North 3.5 mph - N/A   Clear
6:50 PM 50.0 °F - 23.0 °F 35% 30.18 in 10.0 mi NNW 4.6 mph - N/A   Clear
7:10 PM 51.8 °F - 23.0 °F 33% 30.19 in 10.0 mi North 5.8 mph - N/A   Clear
7:30 PM 50.0 °F - 23.0 °F 35% 30.20 in 10.0 mi North 5.8 mph - N/A   Clear
7:50 PM 48.2 °F - 23.0 °F 37% 30.20 in 10.0 mi North 6.9 mph - N/A   Clear
8:10 PM 50.0 °F - 23.0 °F 35% 30.21 in 10.0 mi North 6.9 mph - N/A   Clear
8:50 PM 46.4 °F 43.5 °F 23.0 °F 40% 30.22 in 10.0 mi North 5.8 mph - N/A   Clear
9:10 PM 48.2 °F - 21.2 °F 34% 30.22 in 10.0 mi North 6.9 mph - N/A   Clear
9:30 PM 46.4 °F 42.4 °F 23.0 °F 40% 30.23 in 10.0 mi North 8.1 mph - N/A   Clear
9:50 PM 46.4 °F 43.5 °F 23.0 °F 40% 30.23 in 10.0 mi North 5.8 mph - N/A   Clear
10:10 PM 44.6 °F 40.7 °F 23.0 °F 43% 30.24 in 10.0 mi North 6.9 mph - N/A   Clear
10:30 PM 37.4 °F 32.8 °F 23.0 °F 56% 30.24 in 10.0 mi North 5.8 mph - N/A   Clear
10:50 PM 37.4 °F 32.8 °F 23.0 °F 56% 30.25 in 10.0 mi NNW 5.8 mph - N/A   Clear
11:10 PM 37.4 °F 31.4 °F 23.0 °F 56% 30.25 in 10.0 mi North 8.1 mph - N/A   Clear
11:30 PM 37.4 °F 32.1 °F 23.0 °F 56% 30.25 in 10.0 mi North 6.9 mph - N/A   Clear
11:50 PM 39.2 °F 33.0 °F 23.0 °F 52% 30.24 in 10.0 mi North 9.2 mph - N/A   Clear